Regional Weather Roundup
Issued by NWS

Home | Current Version | Previous Version | Graphics & Text | Print | Product List | Glossary On
Versions: 1 2 3 4 5 6 7 8 9 10 11 12 13 14 15 16 17 18 19 20 21 22 23 24 25 26 27 28 29 30 31 32 33 34 35 36 37 38 39 40 41 42 43 44 45 46 47 48 49 50
315
ASUS43 KDMX 250901
RWRIA

WEATHER ROUNDUP FOR IOWA
NATIONAL WEATHER SERVICE DES MOINES IA
400 AM CDT TUE JUL 25 2017

NOTE: "FAIR" INDICATES FEW OR NO CLOUDS BELOW 12,000 FEET WITH NO
SIGNIFICANT WEATHER AND/OR OBSTRUCTIONS TO VISIBILITY.

* - THESE STATIONS ARE NOT NWS STATIONS...THUS NOT UNDER NWS
QUALITY CONTROL.  THEY ALSO DO NOT REPORT WEATHER SUCH
AS PRECIPITATION OR FOG.

IAZ001>003-012>014-020>022-031>034-043>046-251000-
   NORTHWEST IOWA

CITY           SKY/WX    TMP DP  RH WIND       PRES   REMARKS
CARROLL *      MOCLDY    64  64 100 SE7       30.01S
CHEROKEE *     PTCLDY    69  65  86 S9        29.97F
DENISON *      CLEAR     70  64  83 S16       30.00S
ORANGE CITY *  CLEAR     68  64  88 SE3       29.96S
SHELDON *      CLEAR     70  64  83 SE9       29.96R
SIOUX CITY     PTCLDY    71  67  87 SE8       29.94F
SPENCER        CLEAR     67  64  90 SE12      30.00F
STORM LAKE *   CLEAR     66  64  94 SE10G17   29.99F
$$

IAZ055>058-069>071-079>083-090>094-251000-
   SOUTHWEST IOWA

CITY           SKY/WX    TMP DP  RH WIND       PRES   REMARKS
ATLANTIC *     CLEAR     70  64  83 S9        30.01F
AUDUBON *      CLEAR     68  63  83 S5        30.03F
CLARINDA *     PTCLDY    70  66  88 S3        30.05S
COUNCIL BLFS * PTCLDY    70  68  94 SE12G17   30.01R
CRESTON *      CLEAR     66  64  94 SE12      30.06F
HARLAN  *      CLEAR     70  66  88 S10       30.04S
LAMONI         CLEAR     67  66  97 SE6       30.08R
RED OAK *      PTCLDY    70  64  83 S5        30.02S
SHENANDOAH *     N/A     72  64  78 S9        30.02R
$$

IAZ047>049-059>061-072>074-084-251000-
   CENTRAL IOWA

CITY           SKY/WX    TMP DP  RH WIND       PRES   REMARKS
AMES           CLEAR     65  65 100 SE9       30.05F
ANKENY *       CLEAR     68  64  88 SE7G14    30.07F
BOONE *        CLEAR     66  64  94 SE12      30.04F
CHARITON *     CLEAR     66  64  94 SE8       30.08S
DES MOINES     CLOUDY    68  65  90 SE12      30.05F
GRINNELL*      PTCLDY    64  61  91 SE8       30.10F
KNOXVILLE *    CLEAR     66  63  88 SE8       30.07S
MARSHALLTOWN   CLOUDY    64  63  96 SE10      30.07F
NEWTON *       CLEAR     64  63  94 SE8       30.09S
PELLA *          N/A     64  62  94 SE5       30.09F
$$

IAZ004>006-015-016-023>025-035-036-251000-
   NORTH CENTRAL IOWA

CITY           SKY/WX    TMP DP  RH WIND       PRES   REMARKS
ALGONA *       CLOUDY    66  66 100 SE8G16    30.05R
CLARION *      PTCLDY    64  64 100 SE10G18   30.06R
ESTHERVILLE    PTCLDY    64  64 100 SE12      30.02S
FORT DODGE *   CLEAR     66  63  88 SE10      30.03F
MASON CITY     CLOUDY    63  61  93 S14       30.08S
FOREST CITY *    N/A     64  63  94 S13       30.06F
WEBSTER CITY * CLEAR     66  64  94 SE13      30.03S
IOWA FALLS *     N/A     64  63  94 SE9       30.07F
$$

IAZ007>011-017>019-026>030-037>042-050>054-066-251000-
   NORTHEAST IOWA

CITY           SKY/WX    TMP DP  RH WIND       PRES   REMARKS
CHARLES CITY * MOCLDY    63  63 100 SE8       30.10S
DECORAH *      PTCLDY    61  59  94 SE8       30.11S
DUBUQUE        CLEAR     61  59  93 SE7       30.15R
MONTICELLO *   CLEAR     61  59  94 E5        30.13S
OELWEIN *        N/A    N/A N/A N/A MISG        N/A
$$

IAZ064-065-067-068-078-251000-
   EAST CENTRAL IOWA

CITY           SKY/WX    TMP DP  RH WIND       PRES   REMARKS
DAVENPORT      CLEAR     61  59  93 SE5       30.16R
MUSCATINE *    CLEAR     64  61  88 SE5       30.12S
QUAD CITIES    CLEAR     61  58  90 E6        30.13R
$$

IAZ062-063-075>077-085>089-095>099-251000-
   SOUTHEAST IOWA

CITY           SKY/WX    TMP DP  RH WIND       PRES   REMARKS
BURLINGTON     CLEAR     66  63  90 E5        30.11R
FAIRFIELD *    CLEAR     63  59  88 E5        30.10F
FORT MADISON * CLEAR     66  63  88 E5        30.11F
KEOKUK *       CLEAR     66  64  94 E12       30.09S
OSKALOOSA *      N/A     62  60  96 SE6       30.10S
OTTUMWA        CLEAR     64  63  96 E6        30.10S
WASHINGTON *   PTCLDY    61  61 100 E5        30.12S
$$

ABBREVIATIONS USED IN REMARKS
   TC - TEMPERATURES IN CELSIUS
  WCI - WIND CHILL INDEX
   HX - HEAT INDEX
  VSB - VISIBILITY
$$





USA.gov is the U.S. government's official web portal to all federal, state and local government web resources and services.